Location: ??????
(42.0089°N, 44.3281°E)
Time: 19:38:51
(UTC+00:00)

Cosmos 2278 Rocket - Pass Details

Date: 24 October 2021
Orbit: 841 x 845 km, 71.0° (Epoch: 02 December)

Event Time Altitude Azimuth Distance (km) Brightness Sun altitude
Rises 16:05:17 0° 347° (NNW) 3,414 5.6 -22.5°
Reaches altitude 10° 16:08:39 10° 7° (N) 2,474 4.6 -23.1°
Enters shadow 16:10:25 15° 24° (NNE) 2,137 4.1 -23.5°
